DW4798 Weather Reports


time (UTC)temp
F
wind
direction
speed
knots
gust
knots
rain 1hr
in
rain 24hr
in
rain mn
in
humidity
%
barometer
mb
20260507192115 90 225 0.9 3.5 0.00 0.00 0.00 12 1011.1
20260507191116 89 225 0.9 3.5 0.00 0.00 0.00 11 1011.3
20260507190118 89 0.0 0.9 0.00 0.00 0.00 13 1011.5
20260507185118 88 0.0 0.9 0.00 0.00 0.00 14 1011.7
20260507184118 88 0.0 0.9 0.00 0.00 0.00 15 1011.8
20260507183118 87 0.0 0.0 0.00 0.00 0.00 15 1011.9
20260507182118 86 0.0 0.9 0.00 0.00 0.00 16 1011.9
20260507181118 85 0.0 1.7 0.00 0.00 0.00 17 1011.9
20260507180118 84 0.0 1.7 0.00 0.00 0.00 18 1012.1
20260507175120 83 0.0 0.9 0.00 0.00 0.00 19 1012.2
20260507174121 82 0.0 0.0 0.00 0.00 0.00 19 1012.2
20260507173117 82 0.0 0.0 0.00 0.00 0.00 20 1012.2
20260507172120 81 0.0 0.9 0.00 0.00 0.00 21 1012.3
20260507171117 80 0.0 0.0 0.00 0.00 0.00 22 1012.2
20260507170138 79 225 0.9 1.7 0.00 0.00 0.00 23 1012.3
20260507165137 78 0.0 0.0 0.00 0.00 0.00 24 1012.5
20260507164117 78 0.0 1.7 0.00 0.00 0.00 25 1012.6
20260507163120 77 0.0 0.9 0.00 0.00 0.00 26 1012.5
20260507162120 76 0.0 1.7 0.00 0.00 0.00 26 1012.3
20260507161140 76 0.0 0.9 0.00 0.00 0.00 25 1012.5
20260507160121 75 0.0 0.9 0.00 0.00 0.00 29 1012.7
20260507155120 74 0.0 0.9 0.00 0.00 0.00 28 1012.7
20260507154120 73 0.0 0.0 0.00 0.00 0.00 28 1012.7
20260507153140 73 0.0 0.0 0.00 0.00 0.00 30 1012.6
20260507152117 72 0.0 0.0 0.00 0.00 0.00 31 1012.7
20260507151141 72 0.0 0.9 0.00 0.00 0.00 30 1012.7
20260507150120 72 0.0 0.0 0.00 0.00 0.00 31 1012.7
20260507145120 71 0.0 0.9 0.00 0.00 0.00 26 1012.6
20260507144119 70 0.0 0.0 0.00 0.00 0.00 34 1012.8
20260507143119 69 0.0 0.9 0.00 0.00 0.00 31 1012.7
20260507142116 68 0.0 0.0 0.00 0.00 0.00 35 1012.5
20260507141119 68 0.0 0.0 0.00 0.00 0.00 36 1012.6
20260507140117 67 0.0 0.0 0.00 0.00 0.00 38 1012.6
20260507135117 66 0.0 0.0 0.00 0.00 0.00 40 1012.5
20260507134117 66 0.0 0.0 0.00 0.00 0.00 38 1012.3
20260507133119 66 0.0 0.0 0.00 0.00 0.00 37 1012.4
20260507132140 67 0.0 0.0 0.00 0.00 0.00 34 1012.4
20260507131120 67 0.0 0.0 0.00 0.00 0.00 33 1012.3
20260507130120 67 0.0 0.0 0.00 0.00 0.00 34 1012.1
20260507125119 67 0.0 2.6 0.00 0.00 0.00 33 1012.1
20260507124120 66 0.0 0.9 0.00 0.00 0.00 32 1012.1
20260507123120 67 0.0 0.0 0.00 0.00 0.00 32 1011.9
20260507122120 67 0.0 0.9 0.00 0.00 0.00 32 1012.2
20260507121120 67 0.0 0.9 0.00 0.00 0.00 31 1012.1
20260507120119 67 0.0 0.9 0.00 0.00 0.00 31 1012.2
20260507115120 67 0.0 3.5 0.00 0.00 0.00 32 1012.2
20260507114120 68 0.0 0.9 0.00 0.00 0.00 31 1012.2
20260507113121 68 0.0 0.0 0.00 0.00 0.00 31 1012.2
20260507112120 68 0.0 1.7 0.00 0.00 0.00 30 1012.3
20260507111119 69 0.0 0.0 0.00 0.00 0.00 30 1012.3
20260507110137 69 0.0 0.0 0.00 0.00 0.00 29 1012.4
20260507105117 70 0.0 0.0 0.00 0.00 0.00 29 1012.5
20260507104137 70 0.0 0.9 0.00 0.00 0.00 28 1012.6
20260507103137 70 0.0 0.0 0.00 0.00 0.00 28 1012.6
20260507102117 70 0.0 0.0 0.00 0.00 0.00 28 1012.9
20260507101119 70 0.0 0.0 0.00 0.00 0.00 28 1012.9
20260507100119 70 0.0 0.9 0.00 0.00 0.00 28 1012.9
20260507095119 70 0.0 0.9 0.00 0.00 0.00 28 1013.1
20260507094119 70 0.0 0.0 0.00 0.00 0.00 28 1013.1
20260507093119 70 0.0 0.0 0.00 0.00 0.00 28 1013.2
20260507092119 70 0.0 0.0 0.00 0.00 0.00 28 1013.2
20260507091119 70 0.0 0.0 0.00 0.00 0.00 28 1013.2
20260507090119 70 0.0 0.0 0.00 0.00 0.00 28 1013.4
20260507085119 71 0.0 0.0 0.00 0.00 0.00 28 1013.4
20260507084117 71 0.0 0.0 0.00 0.00 0.00 28 1013.4
20260507083119 71 0.0 0.9 0.00 0.00 0.00 28 1013.5
20260507082119 71 0.0 0.9 0.00 0.00 0.00 28 1013.5
20260507081119 70 0.0 0.0 0.00 0.00 0.00 28 1013.5
20260507080139 70 0.0 0.0 0.00 0.00 0.00 29 1013.6
20260507075117 70 0.0 0.0 0.00 0.00 0.00 29 1013.7
20260507074136 70 0.0 0.0 0.00 0.00 0.00 29 1013.8
20260507073116 71 0.0 0.0 0.00 0.00 0.00 27 1013.7
20260507072117 71 0.0 0.0 0.00 0.00 0.00 28 1013.5
20260507071116 72 0.0 0.0 0.00 0.00 0.00 26 1013.5
20260507070116 72 0.0 0.0 0.00 0.00 0.00 27 1013.4
20260507065121 72 0.0 0.0 0.00 0.00 0.00 26 1013.5
20260507064136 72 0.0 0.0 0.00 0.00 0.00 26 1013.4
20260507063139 71 0.0 0.0 0.00 0.00 0.00 27 1013.3
20260507062117 71 0.0 0.0 0.00 0.00 0.00 28 1013.2
20260507061117 71 0.0 0.0 0.00 0.00 0.00 29 1013.2
20260507060116 71 0.0 0.0 0.00 0.00 0.00 31 1013.3
20260507055119 71 0.0 0.0 0.00 0.00 0.00 30 1013.2
20260507054119 71 0.0 0.0 0.00 0.00 0.00 29 1013.1
20260507053139 71 0.0 0.0 0.00 0.00 0.00 29 1013.0
20260507052119 71 0.0 0.0 0.00 0.00 0.00 31 1013.2
20260507051119 71 0.0 0.0 0.00 0.00 0.00 30 1013.0
20260507050119 71 0.0 0.0 0.00 0.00 0.00 29 1013.0
20260507045119 72 0.0 0.0 0.00 0.00 0.00 29 1012.9
20260507044119 72 0.0 0.0 0.00 0.00 0.00 28 1012.8
20260507043139 73 0.0 0.0 0.00 0.00 0.00 28 1012.8
20260507042119 73 0.0 0.0 0.00 0.00 0.00 27 1012.7
20260507041116 74 0.0 0.0 0.00 0.00 0.00 28 1012.6
20260507040139 74 0.0 0.0 0.00 0.00 0.00 27 1012.4
20260507035139 75 0.0 0.0 0.00 0.00 0.00 27 1012.2
20260507034116 76 0.0 0.0 0.00 0.00 0.00 24 1012.2
20260507033115 76 0.0 0.0 0.00 0.00 0.00 24 1012.2
20260507032116 76 0.0 0.0 0.00 0.00 0.00 25 1012.0
20260507031118 77 0.0 0.0 0.00 0.00 0.00 24 1011.9
20260507030116 77 0.0 0.0 0.00 0.00 0.00 23 1011.7
20260507025119 78 0.0 0.0 0.00 0.00 0.00 23 1011.6
20260507024119 78 0.0 0.0 0.00 0.00 0.00 22 1011.4
20260507023118 79 0.0 0.9 0.00 0.00 0.00 22 1011.4
20260507022119 79 0.0 0.0 0.00 0.00 0.00 22 1011.1
20260507021119 79 0.0 0.0 0.00 0.00 0.00 21 1011.0
20260507020116 80 0.0 1.7 0.00 0.00 0.00 21 1011.0
20260507015118 80 0.0 0.0 0.00 0.00 0.00 22 1010.8
20260507014119 80 0.0 0.0 0.00 0.00 0.00 21 1010.9
20260507013119 81 0.0 0.9 0.00 0.00 0.00 21 1010.9
20260507012119 81 0.0 1.7 0.00 0.00 0.00 21 1010.8
20260507011118 82 0.0 0.9 0.00 0.00 0.00 21 1010.9
20260507010118 82 0.0 0.0 0.00 0.00 0.00 20 1010.9
20260507005116 83 0.0 0.0 0.00 0.00 0.00 21 1010.9
20260507004117 83 0.0 1.7 0.00 0.00 0.00 20 1011.0
20260507003116 83 0.0 0.0 0.00 0.00 0.00 20 1010.9
20260507002116 84 0.0 0.0 0.00 0.00 0.00 19 1011.2
20260507001115 84 0.0 0.0 0.00 0.00 0.00 19 1011.3
20260507000116 84 0.0 0.9 0.00 0.00 0.00 20 1011.0
20260506235118 84 0.0 0.0 0.00 0.00 0.00 20 1011.0
20260506234118 85 0.0 1.7 0.00 0.00 0.00 20 1011.3
20260506233118 85 0.0 0.0 0.00 0.00 0.00 20 1011.3
20260506232118 84 0.0 2.6 0.00 0.00 0.00 20 1011.5
20260506231118 84 0.0 0.0 0.00 0.00 0.00 19 1011.4
20260506230119 84 0.0 1.7 0.00 0.00 0.00 20 1011.6
20260506225119 84 0.0 1.7 0.00 0.00 0.00 20 1011.6
20260506224115 84 0.0 0.0 0.00 0.00 0.00 20 1011.8
20260506223118 84 248 1.7 5.2 0.00 0.00 0.00 20 1011.8
20260506222118 84 0.0 0.0 0.00 0.00 0.00 20 1012.0
20260506221138 84 0.0 0.0 0.00 0.00 0.00 19 1012.2
20260506220118 83 0.0 1.7 0.00 0.00 0.00 20 1012.3
20260506215118 84 0.0 0.0 0.00 0.00 0.00 20 1012.4
20260506214135 83 0.0 1.7 0.00 0.00 0.00 21 1012.5
20260506213118 83 0.0 0.9 0.00 0.00 0.00 21 1012.7
20260506212118 83 0.0 2.6 0.00 0.00 0.00 21 1012.9
20260506211116 83 225 0.9 2.6 0.00 0.00 0.00 20 1013.1
20260506210118 83 0.0 0.0 0.00 0.00 0.00 21 1013.2
20260506205118 83 225 0.9 3.5 0.00 0.00 0.00 21 1013.3
20260506204119 82 0.0 0.0 0.00 0.00 0.00 22 1013.4
20260506203138 82 225 0.9 3.5 0.00 0.00 0.00 21 1013.6
20260506202118 81 0.0 1.7 0.00 0.00 0.00 21 1013.6
20260506201118 81 0.0 1.7 0.00 0.00 0.00 22 1013.8
20260506200118 80 225 1.7 3.5 0.00 0.00 0.00 22 1013.9
20260506195118 80 0.0 1.7 0.00 0.00 0.00 23 1013.9
20260506194138 80 203 1.7 4.3 0.00 0.00 0.00 23 1014.1
20260506193118 79 203 0.9 2.6 0.00 0.00 0.00 23 1014.1